GW4079 Weather Reports


Display with metric or nautical units.
time (UTC)temp
F
wind
direction
speed
MPH
gust
MPH
rain 1hr
in
rain 24hr
in
rain mn
in
humidity
%
barometer
mb
20260905213107 75 68 5.0 14.0 0.00 0.00 0.00 36 1019.5
20260905211601 74 43 3.0 11.0 0.00 0.00 0.00 36 1019.7
20260905210120 74 69 4.0 13.0 0.00 0.00 0.00 36 1019.8
20260905204610 74 22 4.0 11.0 0.00 0.00 0.00 35 1019.7
20260905203105 73 34 5.0 13.0 0.00 0.00 0.00 36 1019.9
20260905201603 73 46 8.0 15.0 0.00 0.00 0.00 36 1020.1
20260905200123 73 15 8.0 15.0 0.00 0.00 0.00 36 1020.1
20260905194602 73 37 10.0 15.0 0.00 0.00 0.00 36 1020.2
20260905193107 72 352 8.0 15.0 0.00 0.00 0.00 37 1020.3
20260905191601 72 59 5.0 12.0 0.00 0.00 0.00 38 1020.4
20260905190103 71 5 8.0 12.0 0.00 0.00 0.00 40 1020.8
20260905184612 71 51 8.0 14.0 0.00 0.00 0.00 43 1020.9
20260905183115 70 14 4.0 15.0 0.00 0.00 0.00 43 1021.0
20260905181602 69 27 7.0 12.0 0.00 0.00 0.00 44 1021.1
20260905180108 70 336 9.0 12.0 0.00 0.00 0.00 43 1021.3
20260905174605 68 25 5.0 12.0 0.00 0.00 0.00 48 1021.1
20260905173101 68 38 3.0 14.0 0.00 0.00 0.00 51 1021.1
20260905171553 67 344 6.0 11.0 0.00 0.00 0.00 49 1021.1
20260905170112 67 45 9.0 13.0 0.00 0.00 0.00 50 1021.0
20260905164608 66 15 4.0 10.0 0.00 0.00 0.00 52 1021.1
20260905163103 65 33 6.0 11.0 0.00 0.00 0.00 58 1020.8
20260905161603 64 360 6.0 11.0 0.00 0.00 0.00 60 1020.7
20260905160055 62 360 6.0 11.0 0.00 0.00 0.00 65 1021.0
20260905154559 61 343 8.0 11.0 0.00 0.00 0.00 66 1020.9
20260905153052 63 9 8.0 13.0 0.00 0.00 0.00 64 1020.7
20260905151644 60 352 10.0 15.0 0.00 0.00 0.00 73 1020.5
20260905150123 59 352 11.0 15.0 0.00 0.00 0.00 73 1020.6
20260905144654 57 341 10.0 16.0 0.00 0.00 0.00 77 1020.5
20260905143151 57 340 14.0 17.0 0.00 0.00 0.00 76 1020.8
20260905141547 56 360 11.0 18.0 0.00 0.00 0.00 76 1020.0
20260905140109 55 342 12.0 16.0 0.00 0.00 0.00 77 1020.0
20260905134553 54 337 12.0 19.0 0.00 0.00 0.00 76 1020.3
20260905133045 53 315 5.0 7.0 0.00 0.00 0.00 79 1021.2
20260905131552 53 307 4.0 8.0 0.00 0.00 0.00 78 1020.3
20260905130050 51 352 7.0 11.0 0.00 0.00 0.00 82 1019.0
20260905124641 51 331 8.0 11.0 0.00 0.00 0.00 82 1018.5
20260905123045 51 352 6.0 9.0 0.00 0.00 0.00 81 1019.2
20260905121850 52 332 5.0 10.0 0.00 0.00 0.00 78 1019.8
20260905121725 52 332 5.0 10.0 0.00 0.00 0.00 78 1019.8
20260905120034 52 269 8.0 12.0 0.00 0.00 0.00 75 1020.4
20260905114542 54 286 6.0 12.0 0.00 0.00 0.00 72 1019.6
20260905113037 53 333 8.0 11.0 0.00 0.00 0.00 71 1018.6
20260905111535 52 326 7.0 11.0 0.00 0.00 0.00 73 1018.5
20260905110043 53 315 7.0 11.0 0.00 0.00 0.00 70 1018.8
20260905104535 52 333 7.0 10.0 0.00 0.00 0.00 72 1018.5
20260905103036 51 338 4.0 6.0 0.00 0.00 0.00 74 1018.2
20260905101544 50 333 4.0 8.0 0.00 0.00 0.00 75 1018.1
20260905100035 48 325 0.0 2.0 0.00 0.00 0.00 75 1018.1
20260905094536 49 22 3.0 4.0 0.00 0.00 0.00 72 1018.0
20260905093035 49 22 1.0 4.0 0.00 0.00 0.00 73 1018.0
20260905091537 49 36 3.0 4.0 0.00 0.00 0.00 71 1017.8
20260905090045 51 47 2.0 3.0 0.00 0.00 0.00 69 1017.8
20260905084535 53 51 3.0 4.0 0.00 0.00 0.00 66 1017.5
20260905083036 53 82 4.0 7.0 0.00 0.00 0.00 66 1017.2
20260905081537 53 35 3.0 5.0 0.00 0.00 0.00 65 1017.2
20260905080036 54 360 4.0 6.0 0.00 0.00 0.00 65 1017.7
20260905074534 53 324 6.0 11.0 0.00 0.00 0.00 66 1018.2
20260905073043 53 323 6.0 9.0 0.00 0.00 0.00 65 1018.1
20260905071535 54 325 0.0 3.0 0.00 0.00 0.00 63 1018.1
20260905070045 53 331 5.0 8.0 0.00 0.00 0.00 64 1017.6
20260905064538 54 328 4.0 5.0 0.00 0.00 0.00 61 1017.6
20260905063038 53 328 4.0 9.0 0.00 0.00 0.00 62 1017.6
20260905061545 52 298 5.0 8.0 0.00 0.00 0.00 64 1017.8
20260905060046 51 352 0.0 5.0 0.00 0.00 0.00 64 1017.8
20260905054540 49 15 4.0 8.0 0.00 0.00 0.00 64 1017.1
20260905053039 50 40 3.0 4.0 0.00 0.00 0.00 62 1016.9
20260905051545 50 57 3.0 5.0 0.00 0.00 0.00 62 1017.1
20260905050044 51 27 2.0 3.0 0.00 0.00 0.00 60 1017.4
20260905044543 52 56 0.0 4.0 0.00 0.00 0.00 57 1017.2
20260905043047 53 51 3.0 6.0 0.00 0.00 0.00 56 1016.9
20260905041551 54 44 0.0 0.0 0.00 0.00 0.00 55 1017.5
20260905040045 56 85 1.0 3.0 0.00 0.00 0.00 52 1017.0
20260905034559 56 85 3.0 6.0 0.00 0.00 0.00 51 1016.6
20260905033046 57 71 4.0 6.0 0.00 0.00 0.00 50 1016.0
20260905031543 58 17 2.0 3.0 0.00 0.00 0.00 48 1016.4
20260905030053 60 17 3.0 5.0 0.00 0.00 0.00 46 1015.8
20260905024547 61 42 3.0 6.0 0.00 0.00 0.00 45 1015.6
20260905023049 62 48 4.0 7.0 0.00 0.00 0.00 44 1015.7
20260905021546 63 13 4.0 5.0 0.00 0.00 0.00 42 1015.6
20260905020050 65 35 5.0 11.0 0.00 0.00 0.00 39 1014.9
20260905014547 66 30 10.0 15.0 0.00 0.00 0.00 38 1014.2
20260905013106 67 19 13.0 20.0 0.00 0.00 0.00 37 1013.7
20260905011555 68 14 13.0 20.0 0.00 0.00 0.00 35 1013.7
20260905010049 69 26 14.0 20.0 0.00 0.00 0.00 34 1013.7
20260905004623 70 41 12.0 20.0 0.00 0.00 0.00 34 1013.8
20260905003043 70 24 15.0 21.0 0.00 0.00 0.00 34 1013.6
20260905001559 71 27 15.0 24.0 0.00 0.00 0.00 34 1013.5
20260905000051 71 5 15.0 21.0 0.00 0.00 0.00 34 1013.1
20260904234546 70 330 15.0 21.0 0.00 0.00 0.00 34 1013.3
20260904233057 71 342 14.0 19.0 0.00 0.00 0.00 33 1013.6
20260904231552 74 346 15.0 23.0 0.00 0.00 0.00 30 1013.6
20260904230057 75 331 15.0 21.0 0.00 0.00 0.00 30 1013.1
20260904224545 75 343 16.0 21.0 0.00 0.00 0.00 30 1013.2
20260904223052 75 296 14.0 19.0 0.00 0.00 0.00 30 1013.0
20260904221556 75 292 16.0 22.0 0.00 0.00 0.00 31 1012.9
20260904220050 75 306 17.0 23.0 0.00 0.00 0.00 31 1012.9
20260904214548 76 302 19.0 25.0 0.00 0.00 0.00 30 1012.6